Date String (YYYY-MM-DD hh:mm:ss) UTC,Instrument flags,absolute air pressure of the measurement (hPa),sample flow rate (lpm),inlet stack bypass flow (lpm),air temperature of the measurement (°C),ambient temperature measured by the external sensor (°C),aerosol sample conditioner tube jacket temperature (°C),OPC LED temperature (°C),internal box temperature (°C),relative humidity of the measurement (%),span deviation,mass concentration of particles derived from Lorenz-Mie calculation of OPC scattering (μg/m³),mass concentration of particles derived from Lorenz-Mie calculation of OPC scattering (μg/m³),mass concentration of particles derived from Lorenz-Mie calculation of OPC scattering (μg/m³)
DateTimeUTC,F1_M11,P_M11,Q1_M11,Q2_M11,T1_M11,T2_M11,T3_M11,T4_M11,T5_M11,U1_M11,ZSPAN_M11,X2_M11,X0_M11,X1_M11
2024-02-22 19:00:00,SystemResetWarning,0832.3,5.00,000.00,020.0,019.5,000.0,028.5,021.8,26.2,0000.0,0003.19,0003.89,0003.07
2024-02-22 19:01:00,SystemResetWarning,0832.3,5.00,000.00,020.0,019.5,000.0,028.5,021.8,26.2,0000.0,0003.16,0003.76,0003.05
2024-02-22 19:02:00,SystemResetWarning,0832.3,5.00,000.00,020.0,019.5,000.0,028.5,021.9,26.2,0000.0,0003.14,0003.73,0003.03
2024-02-22 19:03:00,SystemResetWarning,0832.3,5.01,000.00,020.0,019.5,000.0,028.5,021.8,26.2,0000.0,0003.14,0003.72,0003.02
2024-02-22 19:04:00,SystemResetWarning,0832.3,5.00,000.00,020.0,019.5,000.0,028.5,021.8,26.4,0000.0,0003.14,0003.71,0003.02
2024-02-22 19:05:00,SystemResetWarning,0832.3,5.00,000.00,020.0,019.5,000.0,028.5,021.8,26.7,0000.0,0003.13,0003.67,0003.02
2024-02-22 19:06:00,SystemResetWarning,0832.3,5.00,000.00,020.0,019.5,000.0,028.5,021.9,26.9,0000.0,0003.12,0003.64,0003.02
2024-02-22 19:07:00,SystemResetWarning,0832.3,4.99,000.00,020.0,019.5,000.0,028.5,021.9,26.7,0000.0,0003.14,0003.71,0003.04
2024-02-22 19:08:00,SystemResetWarning,0832.3,5.00,000.00,020.0,019.5,000.0,028.5,021.9,26.7,0000.0,0003.16,0003.75,0003.06
2024-02-22 19:09:00,SystemResetWarning,0832.3,5.01,000.00,020.0,019.5,000.0,028.5,021.9,26.3,0000.0,0003.17,0003.69,0003.09
2024-02-22 19:10:00,SystemResetWarning,0832.3,5.01,000.00,020.0,019.5,000.0,028.5,021.9,25.9,0000.0,0003.19,0003.86,0003.12
2024-02-22 19:11:00,SystemResetWarning,0832.3,5.01,000.00,020.0,019.5,000.0,028.5,021.8,25.9,0000.0,0003.23,0004.51,0003.15
2024-02-22 19:12:00,SystemResetWarning,0832.3,5.00,000.00,020.0,019.5,000.0,028.5,021.8,26.0,0000.0,0003.24,0004.54,0003.17
2024-02-22 19:13:00,SystemResetWarning,0832.2,5.00,000.00,020.0,019.5,000.0,028.5,021.9,26.0,0000.0,0003.29,0004.74,0003.20
2024-02-22 19:14:00,SystemResetWarning,0832.2,5.00,000.00,020.0,019.5,000.0,028.5,021.9,26.1,0000.0,0003.30,0004.73,0003.21
2024-02-22 19:15:00,SystemResetWarning,0832.2,5.00,000.00,020.1,019.5,000.0,028.5,021.9,25.9,0000.0,0003.30,0004.70,0003.22
2024-02-22 19:16:00,SystemResetWarning,0832.2,5.00,000.00,020.1,019.5,000.0,028.5,021.9,25.4,0000.0,0003.29,0004.71,0003.21
2024-02-22 19:17:00,SystemResetWarning,0832.2,5.00,000.00,020.1,019.5,000.0,028.5,021.9,25.2,0000.0,0003.28,0004.70,0003.19
2024-02-22 19:18:00,SystemResetWarning,0832.2,5.00,000.00,020.1,019.5,000.0,028.5,021.9,25.3,0000.0,0003.22,0004.57,0003.15
2024-02-22 19:19:00,SystemResetWarning,0832.2,5.01,000.00,020.1,019.6,000.0,028.5,021.9,25.6,0000.0,0003.18,0004.50,0003.11
2024-02-22 19:20:00,SystemResetWarning,0832.2,5.01,000.00,020.1,019.6,000.0,028.5,021.9,25.7,0000.0,0003.15,0004.47,0003.05
2024-02-22 19:21:00,SystemResetWarning,0832.2,5.00,000.00,020.1,019.6,000.0,028.5,021.9,25.9,0000.0,0003.11,0004.39,0002.98
2024-02-22 19:22:00,SystemResetWarning,0832.2,5.01,000.00,020.1,019.6,000.0,028.5,021.9,25.9,0000.0,0003.04,0003.57,0002.90
2024-02-22 19:23:00,SystemResetWarning,0832.2,5.00,000.00,020.1,019.6,000.0,028.5,021.9,25.9,0000.0,0002.96,0003.49,0002.81
2024-02-22 19:24:00,SystemResetWarning,0832.2,5.00,000.00,020.1,019.6,000.0,028.5,021.9,25.7,0000.0,0002.83,0003.25,0002.72
2024-02-22 19:25:00,SystemResetWarning,0832.2,4.99,000.00,020.1,019.6,000.0,028.5,021.9,25.5,0000.0,0002.71,0003.10,0002.60
2024-02-22 19:26:00,SystemResetWarning,0832.2,4.99,000.00,020.1,019.6,000.0,028.5,021.9,25.5,0000.0,0002.61,0003.02,0002.49
2024-02-22 19:27:00,SystemResetWarning,0832.2,4.99,000.00,020.1,019.6,000.0,028.5,021.9,25.4,0000.0,0002.53,0002.94,0002.42
2024-02-22 19:28:00,SystemResetWarning,0832.2,5.00,000.00,020.1,019.6,000.0,028.5,021.9,25.4,0000.0,0002.48,0002.87,0002.37
2024-02-22 19:29:00,SystemResetWarning,0832.2,5.01,000.00,020.1,019.6,000.0,028.5,021.9,25.3,0000.0,0002.49,0002.89,0002.38
2024-02-22 19:30:00,SystemResetWarning,0832.2,5.00,000.00,020.1,019.6,000.0,028.5,021.9,25.5,0000.0,0002.53,0002.99,0002.39
2024-02-22 19:31:00,SystemResetWarning,0832.2,5.00,000.00,020.1,019.6,000.0,028.5,021.9,25.6,0000.0,0002.54,0003.01,0002.40
2024-02-22 19:32:00,SystemResetWarning,0832.2,5.01,000.00,020.1,019.6,000.0,028.5,021.9,25.7,0000.0,0002.55,0003.01,0002.41
2024-02-22 19:33:00,SystemResetWarning,0832.1,4.99,000.00,020.1,019.6,000.0,028.5,021.9,25.7,0000.0,0002.55,0002.99,0002.42
2024-02-22 19:34:00,SystemResetWarning,0832.2,5.00,000.00,020.1,019.6,000.0,028.5,021.9,25.5,0000.0,0002.59,0003.07,0002.47
2024-02-22 19:35:00,SystemResetWarning,0832.2,5.00,000.00,020.1,019.6,000.0,028.5,021.9,25.4,0000.0,0002.65,0003.16,0002.52
2024-02-22 19:36:00,SystemResetWarning,0832.2,5.01,000.00,020.1,019.6,000.0,028.5,021.9,25.3,0000.0,0002.76,0003.38,0002.59
2024-02-22 19:37:00,SystemResetWarning,0832.2,5.00,000.00,020.1,019.6,000.0,028.5,021.9,25.2,0000.0,0002.82,0003.45,0002.66
2024-02-22 19:38:00,SystemResetWarning,0832.2,5.01,000.00,020.1,019.6,000.0,028.5,021.9,25.1,0000.0,0002.87,0003.71,0002.72
2024-02-22 19:39:00,SystemResetWarning,0832.2,5.00,000.00,020.1,019.6,000.0,028.5,022.0,25.1,0000.0,0002.93,0004.07,0002.78
2024-02-22 19:40:00,SystemResetWarning,0832.2,5.00,000.00,020.1,019.6,000.0,028.6,022.0,25.0,0000.0,0002.97,0004.14,0002.80
2024-02-22 19:41:00,SystemResetWarning,0832.2,5.00,000.00,020.1,019.6,000.0,028.5,022.0,25.0,0000.0,0003.01,0004.20,0002.84
2024-02-22 19:42:00,SystemResetWarning,0832.1,5.00,000.00,020.1,019.6,000.0,028.6,022.0,25.0,0000.0,0003.05,0004.26,0002.85
2024-02-22 19:43:00,SystemResetWarning,0832.2,5.01,000.00,020.1,019.6,000.0,028.6,022.0,24.9,0000.0,0003.09,0004.36,0002.86
2024-02-22 19:44:00,SystemResetWarning,0832.2,5.00,000.00,020.1,019.7,000.0,028.6,022.0,24.8,0000.0,0003.11,0004.39,0002.88
2024-02-22 19:45:00,SystemResetWarning,0832.2,5.01,000.00,020.2,019.7,000.0,028.6,022.0,24.8,0000.0,0003.11,0004.39,0002.88
2024-02-22 19:46:00,SystemResetWarning,0832.2,5.00,000.00,020.2,019.7,000.0,028.6,022.0,24.8,0000.0,0003.11,0004.43,0002.87
2024-02-22 19:47:00,SystemResetWarning,0832.2,5.01,000.00,020.2,019.7,000.0,028.6,022.0,24.8,0000.0,0003.08,0004.28,0002.86
2024-02-22 19:48:00,SystemResetWarning,0832.2,4.99,000.00,020.2,019.7,000.0,028.6,022.0,24.8,0000.0,0003.07,0004.26,0002.85
2024-02-22 19:49:00,SystemResetWarning,0832.2,4.99,000.00,020.2,019.7,000.0,028.6,022.0,24.8,0000.0,0003.10,0004.21,0002.85
2024-02-22 19:50:00,SystemResetWarning,0832.2,5.00,000.00,020.2,019.7,000.0,028.6,022.0,24.8,0000.0,0003.10,0003.93,0002.84
2024-02-22 19:51:00,SystemResetWarning,0832.2,5.01,000.00,020.2,019.7,000.0,028.6,022.0,24.8,0000.0,0003.10,0003.92,0002.84
2024-02-22 19:52:00,SystemResetWarning,0832.2,5.01,000.00,020.2,019.7,000.0,028.6,022.0,24.9,0000.0,0003.07,0003.79,0002.83
2024-02-22 19:53:00,SystemResetWarning,0832.2,5.00,000.00,020.2,019.7,000.0,028.6,022.0,24.9,0000.0,0003.02,0003.71,0002.81
2024-02-22 19:54:00,SystemResetWarning,0832.2,5.01,000.00,020.2,019.7,000.0,028.6,022.0,24.9,0000.0,0002.96,0003.62,0002.78
2024-02-22 19:55:00,SystemResetWarning,0832.2,4.99,000.00,020.2,019.7,000.0,028.6,022.0,24.9,0000.0,0002.93,0003.64,0002.74
2024-02-22 19:56:00,SystemResetWarning,0832.2,5.00,000.00,020.2,019.7,000.0,028.6,022.0,25.0,0000.0,0002.90,0003.62,0002.71
2024-02-22 19:57:00,SystemResetWarning,0832.2,5.00,000.00,020.2,019.7,000.0,028.6,022.1,25.0,0000.0,0002.84,0003.48,0002.67
2024-02-22 19:58:00,SystemResetWarning,0832.2,5.00,000.00,020.2,019.7,000.0,028.6,022.1,25.0,0000.0,0002.80,0003.43,0002.64
2024-02-22 19:59:00,SystemResetWarning,0832.2,5.00,000.00,020.2,019.7,000.0,028.6,022.1,25.0,0000.0,0002.77,0003.41,0002.59
